Dewpoint
15 10 10 11 19 16 19 22 22 25 26 24 24 24 24 24 23 23 23 26 27 27 38 52 54 56 57 57 58 57 57 56 58 59 59 59 59 60 61 61 61 61 60 61
24 14 12 10 16 21 22 20 19 25 26 25 24 23 24 23 22 23 23 24 27 29 43 53 54 55 57 57 57 57 57 57 58 58 58 59 59 60 60 61 61 60 61 60
16 20 22 16 14 14 17 19 21 22 24 24 22 18 14 17 21 23 25 28 30 30 31 50 54 54 55 56 56 56 56 57 57 56 58 57 58 59 59 59 60 61 59 58
16 16 18 21 17 12 10 15 18 19 18 14 19 11 14 18 19 27 28 28 29 30 34 46 53 54 55 56 55 55 56 56 56 56 56 55 56 57 58 59 60 60 58 56
12 18 16 16 18 12 11 13 13 13 16 13 12 10 12 20 23 21 25 29 32 30 32 42 52 54 55 55 55 55 56 55 55 55 56 56 55 57 59 57 59 57 57 56
3 18 21 16 18 16 15 14 14 15 15 12 12 12 12 14 16 27 35 37 41 40 31 44 52 54 54 54 55 55 55 55 54 55 57 55 55 58 57 57 57 56 56 56
1 8 13 17 15 24 19 18 17 17 14 13 14 15 13 20 24 34 37 39 40 47 37 48 52 53 54 54 54 54 55 55 55 55 57 57 56 58 57 56 56 57 56 57
5 3 10 14 16 16 21 21 19 14 18 17 22 16 21 24 32 37 40 41 42 42 46 48 51 52 53 53 53 54 55 55 55 55 56 57 57 58 58 57 56 57 57 57
15 9 14 12 14 15 16 16 20 16 23 20 20 25 27 33 35 38 40 42 42 44 45 49 51 53 53 53 53 54 53 54 54 54 56 56 56 57 57 57 56 57 58 58
27 23 26 22 13 15 16 19 17 19 13 12 17 23 23 32 34 38 40 41 42 44 45 50 52 52 53 54 54 54 53 53 53 54 54 55 55 56 57 57 56 56 57 58
32 26 25 30 21 13 14 17 18 20 21 15 14 18 27 27 35 40 42 42 43 43 46 52 52 53 53 54 54 54 54 54 54 54 54 53 53 55 56 56 56 56 56 57
33 29 23 24 34 33 25 18 18 19 17 22 19 17 37 39 40 41 41 45 44 43 44 49 53 54 54 53 54 54 55 55 55 55 55 54 53 54 54 55 55 56 56 56
34 28 23 25 29 32 26 25 29 20 25 22 21 20 37 40 41 42 44 45 45 42 43 45 50 53 54 54 54 53 54 54 55 56 55 53 53 53 54 54 55 55 55 55
35 32 26 23 25 27 30 24 23 24 19 18 23 31 36 39 40 41 43 45 46 45 45 44 46 49 51 55 55 54 53 53 54 55 56 55 53 53 53 53 53 54 55 55
32 28 29 25 26 27 30 33 27 29 27 21 26 23 27 39 41 42 44 45 45 45 46 45 46 46 47 49 52 55 54 54 53 53 54 55 55 54 54 53 52 52 53 54
32 26 30 24 21 19 28 30 32 27 30 32 30 30 39 40 42 44 46 45 44 45 46 46 46 45 45 45 47 48 50 54 54 53 53 54 55 54 54 54 53 52 52 52
27 29 26 19 25 23 23 27 27 28 28 30 25 33 38 39 41 43 43 44 44 45 44 43 45 46 43 43 44 45 47 49 54 54 53 53 54 55 54 54 53 52 52 53
26 25 27 24 25 9 20 30 28 30 32 30 33 37 38 38 39 43 44 44 44 43 42 42 42 44 41 41 41 43 45 46 48 54 54 54 54 54 54 54 54 53 52 52
28 25 23 22 21 19 23 28 28 29 32 35 36 38 40 43 43 43 44 44 42 40 39 39 41 40 38 38 40 42 43 43 44 45 50 55 55 54 54 54 54 53 52 50
25 26 24 24 18 15 20 26 29 35 30 39 38 37 40 40 36 40 41 40 38 37 37 37 39 38 37 37 37 39 40 40 40 41 43 46 49 54 53 53 53 46 47 40
23 23 21 22 21 22 25 28 31 26 27 38 37 39 39 32 36 41 38 36 36 34 34 35 37 35 35 35 36 37 37 37 38 39 39 40 42 50 54 52 45 42 37 34
26 23 18 20 18 16 26 30 28 33 37 39 36 36 41 41 39 38 36 34 32 32 33 33 34 34 34 33 34 34 34 34 36 36 36 36 37 38 43 44 40 37 35 32
23 30 25 24 21 25 32 35 37 38 33 37 35 43 43 40 38 36 34 32 31 31 30 31 32 32 32 32 32 32 32 32 33 33 33 33 33 34 35 36 35 34 34 32
33 34 30 29 29 34 38 39 39 41 41 41 40 40 38 37 35 34 32 30 29 29 29 29 30 30 30 30 30 31 30 30 29 28 28 29 29 30 31 32 32 32 32 31
32 33 33 31 35 37 38 38 41 39 37 36 36 36 36 34 32 32 30 29 28 28 28 29 29 29 27 27 28 29 29 29 28 28 28 27 28 28 28 28 28 28 30 31
36 33 31 31 37 37 36 37 40 37 36 35 33 32 32 32 31 30 28 27 27 26 26 26 26 26 27 25 25 26 27 27 27 26 27 27 27 27 27 27 27 31 30 30
Lifted_Index
6 5 5 6 6 6 6 6 6 6 6 5 5 5 5 5 5 5 5 5 4 4 3 2 1 0 -0 -1 -1 -1 -1 -0 1 2 2 1 1 2 2 1 1 1 2 3
6 5 6 6 6 6 6 6 6 6 6 5 5 5 6 6 6 6 5 5 4 4 3 2 1 0 -1 -1 -1 -1 -1 0 1 2 2 1 2 2 2 1 1 1 2 3
6 6 6 7 6 6 6 6 6 5 5 5 5 5 5 6 6 6 6 5 4 4 3 2 1 0 -1 -1 -1 -1 -1 0 1 2 2 2 2 2 2 1 1 1 2 2
6 6 7 6 6 6 5 5 5 5 4 4 4 4 5 6 6 6 6 5 5 5 4 3 2 1 -0 -1 -1 -1 -0 0 1 1 1 2 2 2 2 2 1 1 2 2
6 6 6 6 6 6 5 5 5 4 4 4 4 4 5 6 5 5 5 5 4 5 5 4 2 1 0 -0 -1 -1 -0 0 1 1 1 2 2 2 2 2 2 1 1 1
6 6 6 5 5 5 5 5 4 4 3 3 4 4 4 5 5 4 3 3 3 4 4 3 2 1 1 -0 -1 -1 -1 0 1 1 1 2 2 2 2 2 2 1 1 2
4 5 5 5 5 4 4 4 3 2 2 2 4 4 4 4 4 3 3 3 3 3 3 2 2 1 1 -0 -1 -1 -1 -0 1 2 2 2 2 2 2 2 2 2 2 2
3 3 4 5 4 4 3 3 2 1 1 2 3 4 4 4 3 2 2 2 2 2 2 1 1 1 1 -0 -1 -1 -1 -0 1 2 2 2 2 2 2 2 2 2 2 2
1 2 3 4 4 4 3 2 2 1 1 2 3 3 3 3 2 1 2 2 2 2 2 1 1 1 1 -0 -1 -1 -1 0 2 2 2 2 2 2 2 2 2 2 1 1
0 1 1 2 3 3 3 3 2 1 1 1 2 3 3 2 1 1 2 2 2 2 2 1 1 0 -0 -1 -1 -1 -0 1 2 2 2 2 2 2 2 2 2 2 1 1
-0 0 0 0 1 1 2 2 2 1 1 1 2 2 2 2 1 1 1 2 2 2 2 1 0 -0 -1 -1 -1 -1 -0 1 2 2 3 3 3 3 3 2 2 2 1 1
0 0 -0 -0 -0 -0 1 1 2 2 2 2 2 2 2 1 1 1 1 1 2 2 2 1 -0 -1 -1 -2 -2 -1 -0 1 2 2 3 3 3 3 3 3 2 2 2 2
1 0 -0 -0 -0 -0 -0 0 1 2 2 2 2 2 1 0 0 0 0 1 2 2 2 1 0 -0 -1 -1 -2 -1 -0 1 2 2 2 3 3 3 4 3 3 2 2 3
1 1 0 0 -0 -0 -0 -0 0 1 1 2 2 1 0 -0 -0 0 0 1 1 2 2 3 2 1 0 -1 -1 -1 -1 0 1 2 2 3 3 3 4 4 3 3 3 3
1 1 1 1 1 1 0 0 0 1 1 1 1 1 0 -0 -0 -0 0 1 1 1 2 3 4 3 2 0 -0 -0 -0 -0 -0 0 1 2 2 3 3 4 4 3 3 3
1 1 1 1 2 2 1 1 1 1 1 1 1 1 0 -0 -0 -0 -0 0 1 2 2 3 4 4 3 2 1 1 1 0 -0 -0 -0 0 1 2 3 3 3 3 3 3
1 1 1 1 2 2 2 1 2 2 1 1 1 0 0 -0 -0 -0 -0 0 1 2 3 3 4 4 4 4 2 2 2 1 1 0 -0 -0 -0 1 2 2 3 3 3 3
2 1 1 1 1 2 1 1 1 1 1 1 1 1 0 0 0 0 1 1 2 3 3 3 4 4 5 5 4 3 3 2 2 1 0 -0 -0 0 1 1 2 3 3 3
2 2 2 1 1 1 1 1 0 1 1 1 1 1 1 1 0 1 1 2 3 4 4 4 4 5 5 6 6 5 4 3 3 2 1 1 0 -0 -0 0 1 1 2 3
2 2 2 2 1 1 1 0 -0 0 0 0 1 1 1 1 1 1 2 3 4 4 4 4 4 5 5 6 6 6 6 5 4 3 2 1 1 0 -0 -0 -0 0 1 1
1 2 2 2 2 1 1 1 0 -0 -0 0 0 1 1 1 1 2 2 4 4 4 4 4 4 4 5 5 6 6 6 6 5 4 3 2 1 0 -0 -0 -0 -0 0 1
1 1 2 2 2 2 2 1 0 0 -0 0 1 1 2 2 2 3 4 4 5 5 5 4 4 4 5 5 6 6 6 6 6 5 4 3 1 0 -0 -0 -0 -0 0 0
1 1 2 2 3 3 2 2 1 0 0 0 1 1 1 2 3 4 5 5 5 5 5 5 5 5 5 6 6 6 6 7 7 6 6 4 3 1 1 0 0 0 0 0
1 1 2 2 2 2 2 1 1 0 0 0 1 1 1 2 3 4 6 6 6 6 6 6 6 6 6 6 7 7 7 7 7 7 7 6 4 3 2 2 2 1 1 1
2 2 1 1 1 1 1 1 0 0 0 1 1 1 2 3 4 5 6 6 7 7 8 8 7 7 7 7 8 9 9 8 8 7 7 7 6 5 4 4 4 5 5 6
2 2 1 1 1 1 1 0 0 -0 0 1 1 2 3 4 5 5 6 6 7 7 8 8 8 7 7 8 9 10 10 9 8 7 7 7 7 6 5 5 6 9 10 10